EW7304 Weather Reports


time (UTC)temp
C
wind
direction
speed
KPH
gust
KPH
rain 1hr
cm
rain 24hr
cm
rain mn
cm
humidity
%
barometer
mb
20260502181544 22 353 3.2 12.9 0.00 4.45 0.00 52 1020.2
20260502163034 20 85 1.6 9.7 0.00 5.87 0.00 64 1020.4
20260502161528 20 105 1.6 9.7 0.00 5.87 0.00 67 1020.5
20260502151517 18 112 1.6 8.0 0.00 5.97 0.00 73 1020.2
20260502123049 12 330 0.0 4.8 0.00 6.17 0.00 91 1018.5
20260502121549 12 300 0.0 6.4 0.00 6.17 0.00 92 1018.4
20260502114543 12 352 0.0 3.2 0.00 6.17 0.00 92 1018.1
20260502113041 12 330 0.0 6.4 0.00 6.17 0.00 92 1017.8
20260502111539 12 20 0.0 3.2 0.00 6.17 0.00 92 1017.8
20260502110037 12 1 0.0 1.6 0.00 6.17 0.00 91 1017.7
20260502104546 12 347 0.0 0.0 0.00 6.17 0.00 90 1017.3
20260502103034 12 327 0.0 1.6 0.00 6.17 0.00 88 1017.0
20260502101530 12 96 0.0 9.7 0.00 6.17 0.00 87 1016.8
20260502091524 12 328 0.0 6.4 0.00 6.17 0.00 89 1015.9
20260502071517 13 20 0.0 4.8 0.00 6.17 0.00 94 1015.8
20260502070009 13 27 0.0 6.4 0.00 6.17 0.00 94 1015.7
20260502064512 13 338 1.6 8.0 0.00 6.25 0.00 94 1015.4
20260502063108 13 342 0.0 6.4 0.00 6.25 0.00 94 1015.4
20260502061506 13 88 0.0 6.4 0.00 6.25 0.00 95 1015.4
20260502060005 13 136 0.0 12.9 0.00 6.25 0.00 94 1015.4
20260502054511 13 44 1.6 17.7 0.00 8.05 0.00 94 1015.4
20260502053002 13 77 0.0 9.7 0.00 8.05 0.00 94 1015.7
20260502051659 13 47 0.0 9.7 0.00 8.05 0.00 95 1015.6
20260502050100 13 9 1.6 9.7 0.00 8.05 0.00 96 1015.6
20260502044607 13 54 0.0 4.8 0.03 8.05 8.05 96 1015.6
20260502043103 13 68 0.0 8.0 0.03 8.05 8.05 96 1015.6
20260502041539 13 327 1.6 6.4 0.03 8.05 8.05 96 1015.6
20260502040036 13 68 0.0 6.4 0.03 8.05 8.05 96 1015.3
20260502034542 13 72 0.0 8.0 0.03 8.03 8.03 96 1014.7
20260502033045 13 117 0.0 6.4 0.05 8.03 8.03 96 1014.5
20260502031528 13 27 0.0 8.0 0.05 8.03 8.03 96 1014.1
20260502030027 13 92 1.6 9.7 0.08 8.03 8.03 96 1013.4
20260502024528 14 314 0.0 9.7 0.05 8.03 8.00 96 1013.8
20260502023027 14 353 0.0 4.8 0.05 8.00 7.98 97 1013.6
20260502021520 14 283 0.0 6.4 0.10 8.00 7.98 97 1013.7
20260502020019 14 356 0.0 4.8 0.08 7.98 7.95 97 1013.5
20260502014523 14 356 0.0 3.2 0.10 8.15 7.95 97 1013.1
20260502013015 14 359 0.0 4.8 0.23 8.13 7.92 97 1012.6
20260502011521 15 307 0.0 4.8 0.38 8.08 7.87 97 1012.5
20260502010017 15 316 0.0 4.8 0.51 8.08 7.87 97 1011.3
20260502004513 15 102 1.6 9.7 0.51 8.59 7.85 96 1010.8
20260502003017 15 307 1.6 8.0 0.36 8.43 7.70 96 1011.3
20260502001509 15 15 0.0 9.7 0.20 8.23 7.49 96 1011.1
20260502000007 15 355 0.0 12.9 0.10 8.10 7.37 96 1010.7
20260501234507 15 56 0.0 6.4 0.08 8.08 7.34 96 1010.6
20260501233004 15 343 0.0 4.8 0.08 8.08 7.34 96 1010.1
20260501231507 15 359 1.6 8.0 0.03 8.03 7.29 96 1010.2
20260501230002 16 74 0.0 8.0 0.03 8.00 7.26 96 1010.0
20260501224500 16 79 1.6 4.8 0.05 8.00 7.26 97 1010.4
20260501223100 16 117 1.6 12.9 0.15 8.00 7.26 97 1010.2
20260501221600 16 91 4.8 16.1 0.33 8.00 7.26 97 1010.5
20260501220057 16 341 0.0 4.8 0.48 7.98 7.24 97 1010.9
20260501214607 16 46 0.0 4.8 0.66 7.95 7.21 97 1010.6
20260501213103 16 127 0.0 8.0 0.58 7.82 7.09 97 1009.3
20260501211555 16 61 4.8 12.9 0.71 7.62 6.88 97 1009.7
20260501210053 16 103 1.6 9.7 1.42 7.49 6.76 97 1010.2
20260501204553 16 290 0.0 16.1 1.70 7.29 6.55 97 1010.2
20260501203051 16 103 0.0 9.7 2.79 7.24 6.50 97 1009.3
20260501201552 17 98 0.0 4.8 2.51 6.91 6.17 97 1008.7
20260501200048 16 13 0.0 8.0 1.70 6.07 5.33 97 1009.7
20260501194558 16 91 3.2 9.7 1.22 5.59 4.85 97 1008.7
20260501193047 16 82 1.6 11.3 0.10 4.45 3.71 96 1009.1
20260501191545 17 87 1.6 11.3 0.05 4.39 3.66 96 1008.4
20260501190050 17 94 1.6 8.0 0.03 4.37 3.63 96 1010.1
20260501184544 17 81 0.0 11.3 0.03 4.37 3.63 96 1009.3
20260501183042 17 202 3.2 20.9 0.00 4.34 3.61 97 1009.8